Location: Mentone
(34.5413°N, 85.5351°W)
Time: 20:05:00
(UTC-05:00)

Okean O Rocket - Visible Passes

Search period start: 18 April 2015 00:00
Search period end: 28 April 2015 00:00
Orbit: 623 x 647 km, 98.0° (Epoch: 18 April)

Date Brightness Start Highest point End Pass type
(mag) Time Alt. Az. Time Alt. Az. Time Alt. Az.
18 Apr 3.9 03:01:10 10° NE 03:03:38 20° ENE 03:03:38 20° ENE visible
18 Apr 2.7 04:37:15 10° NNW 04:40:55 26° WNW 04:41:07 26° WNW visible
19 Apr 2.9 03:22:32 10° NNE 03:25:59 37° ENE 03:25:59 37° ENE visible
19 Apr 3.3 05:00:09 10° NNW 05:02:45 15° WNW 05:03:28 15° W visible
20 Apr 1.7 03:44:17 10° NNE 03:48:19 70° ENE 03:48:19 70° ENE visible
21 Apr 1.6 04:06:18 10° N 04:10:35 59° WNW 04:10:40 59° W visible
22 Apr 4.0 02:53:06 10° NE 02:55:31 17° E 02:55:31 17° E visible
22 Apr 2.4 04:28:34 10° N 04:32:29 32° WNW 04:33:00 31° W visible
23 Apr 3.1 03:14:14 10° NE 03:17:51 31° E 03:17:51 31° E visible
23 Apr 3.1 04:51:14 10° NNW 04:54:20 19° WNW 04:55:21 17° W visible
24 Apr 2.0 03:35:51 10° NNE 03:40:09 58° E 03:40:11 58° ESE visible
24 Apr 3.7 05:14:59 10° NW 05:16:09 11° WNW 05:17:04 10° W visible
25 Apr 1.4 03:57:45 10° N 04:02:07 76° WNW 04:02:31 69° SW visible
26 Apr 4.2 02:45:10 10° ENE 02:47:22 14° E 02:47:22 14° E visible
26 Apr 2.1 04:19:55 10° N 04:24:02 41° WNW 04:24:51 37° WSW visible
27 Apr 3.4 03:05:58 10° NE 03:09:32 25° E 03:09:41 25° E visible
27 Apr 2.9 04:42:23 10° NNW 04:45:54 23° WNW 04:47:10 20° W visible
